This demonstration page uses our WeatherBlox Daily Observations layout. Learn more.

Left ArrowRight Arrow

34.02893, -84.19858

Hourly Observations for March 23, 2022

Temp ( °F °C ) Dew Point ( °F °C ) Humidity (%) Winds ( mph kmh ) Pressure ( in mb ) Visibility ( mi km ) Precip ( " mm )
12:53 am 00:53 Cloudy with Light Rain 65 18.3 53 11.7 66 66 SE 12 19 29.86 1011 10 16 0.00 0.00
1:53 am 01:53 Cloudy 64 17.8 54 12.2 70 70 SE 8 13 29.84 1011 10 16 0.00 0.00
2:53 am 02:53 Cloudy 63 17.2 56 13.3 78 78 SE 14 22 29.80 1009 10 16 0.00 0.00
3:33 am 03:33 Cloudy with Light Rain 61 16.1 58 14.4 90 90 SE 12 19 29.82 1010 9 14 0.01 0.25
3:53 am 03:53 Cloudy with Light Rain 61 16.1 58 14.4 90 90 SE 9 15 29.78 1008 7 11 0.02 0.51
4:53 am 04:53 Cloudy 61 16.1 59 15 93 93 SSE 15 24 29.75 1007 10 16 0.01 0.25
5:07 am 05:07 Cloudy with Light Rain 62 16.7 59 15 90 90 SE 12 19 29.76 1008 9 14 0.00 0.00
5:16 am 05:16 Cloudy with Rain 62 16.7 59 15 90 90 S 13 20 29.76 1008 4 6 0.04 1.02
5:53 am 05:53 Cloudy with Rain 62 16.7 60 15.6 93 93 SSE 14 22 29.74 1007 5 8 0.10 2.54
6:09 am 06:09 Cloudy with Heavy Rain 62 16.7 60 15.6 93 93 SSE 9 15 29.77 1008 3 4 0.09 2.29
6:20 am 06:20 Cloudy with Light Rain 62 16.7 61 16.1 96 96 SSE 8 13 29.77 1008 8 13 0.09 2.29
6:44 am 06:44 Cloudy with Light Rain 62 16.7 61 16.1 96 96 SSE 8 13 29.77 1008 8 13 0.10 2.54
6:53 am 06:53 Cloudy with Light Rain 62 16.7 61 16.1 96 96 SSE 8 13 29.75 1007 8 13 0.10 2.54
7:05 am 07:05 Cloudy with Rain 62 16.7 61 16.1 96 96 SSE 9 15 29.76 1008 4 6 0.03 0.76
7:41 am 07:41 Cloudy with Light Rain 63 17.2 61 16.1 93 93 SSE 8 13 29.76 1008 7 11 0.08 2.03
7:53 am 07:53 Cloudy with Light Rain 63 17.2 62 16.7 97 97 SSE 6 9 29.75 1007 6 10 0.09 2.29
8:53 am 08:53 Cloudy 64 17.8 63 17.2 96 96 SSE 12 19 29.75 1007 10 16 0.04 1.02
9:53 am 09:53 Cloudy 65 18.3 63 17.2 93 93 S 8 13 29.76 1008 10 16 0.00 0.00
10:00 am 10:00 Cloudy with Light Rain 65 18.3 63 17.2 93 93 S 7 11 29.77 1008 9 14 0.01 0.25
10:24 am 10:24 Cloudy with Light Rain 65 18.3 64 17.8 97 97 S 7 11 29.76 1008 6 10 0.04 1.02
10:53 am 10:53 Cloudy with Light Rain 65 18.3 64 17.8 97 97 SSE 8 13 29.75 1007 6 10 0.07 1.78
11:53 am 11:53 Cloudy 67 19.4 65 18.3 93 93 S 9 15 29.75 1007 10 16 0.00 0.00
12:53 pm 12:53 Cloudy 71 21.7 65 18.3 81 81 S 15 24 29.74 1007 10 16 0.00 0.00
1:00 pm 13:00 Cloudy 72 22.2 66 18.9 82 82 S 16 26 29.74 1007 10 16 0.00 0.00
1:53 pm 13:53 Mostly Cloudy 93 33.9 65 18.3 40 40 S 15 24 29.70 1006 10 16 0.00 0.00
2:53 pm 14:53 Mostly Sunny 95 35 65 18.3 37 37 S 10 17 29.68 1005 10 16 0.00 0.00
3:53 pm 15:53 Sunny 90 32.2 62 16.7 39 39 S 16 26 29.67 1005 10 16 0.00 0.00
4:53 pm 16:53 Mostly Cloudy 90 32.2 60 15.6 37 37 S 21 33 29.68 1005 10 16 0.00 0.00
5:53 pm 17:53 Partly Cloudy 90 32.2 61 16.1 38 38 SSW 16 26 29.69 1006 10 16 0.00 0.00
6:53 pm 18:53 Mostly Sunny 88 31.1 57 13.9 35 35 SW 22 35 29.72 1007 10 16 0.00 0.00
7:53 pm 19:53 Clear 85 29.4 54 12.2 35 35 SSW 13 20 29.76 1008 10 16 0.00 0.00
8:53 pm 20:53 Clear 85 29.4 50 10 30 30 SW 15 24 29.79 1009 10 16 0.00 0.00
9:53 pm 21:53 Clear 83 28.3 47 8.3 28 28 WSW 9 15 29.82 1010 10 16 0.00 0.00
10:53 pm 22:53 Clear 83 28.3 46 7.8 27 27 W 10 17 29.84 1010 10 16 0.00 0.00
11:53 pm 23:53 Clear 74 23.3 45 7.2 36 36 NW 10 17 29.85 1011 10 16 0.00 0.00

Powered by AerisWeather